Simultaneous Nadir Overpasses (SNOs) Predictions

Prediction of SNOs between AQUA and GOES-15 Satellite Orbit:

Table of predicted SNOs for the next 14.0 days since TLE Epoch: 10/2/2021
Index Date Time (AQUA) AQUA Lat,Lon GOES-15 Lat,Lon Distance(km) Time Diff (sec)
1 10/02/2021 21:51:53 0.43,-124.14 -0.33,-127.74 409.03 80
2 10/03/2021 10:13:09 0.66,-129.30 0.31,-127.78 173.87 80
3 10/05/2021 10:00:58 0.01,-126.35 0.31,-127.85 170.17 80
4 10/05/2021 22:22:23 -1.05,-131.55 -0.29,-127.85 420.58 80
5 10/07/2021 22:10:11 -0.46,-128.59 -0.29,-127.91 77.02 80
6 10/09/2021 21:58:00 0.21,-125.64 -0.30,-127.97 265.76 80
7 10/10/2021 10:19:16 0.88,-130.80 0.27,-128.00 317.65 80
8 10/12/2021 10:07:05 0.21,-127.84 0.27,-128.05 24.14 80
9 10/14/2021 09:54:53 -0.41,-124.88 0.27,-128.10 365.37 80
10 10/14/2021 22:16:16 -0.67,-130.08 -0.25,-128.09 226.06 80
